Appleton, MN

1:17 AM CDT on July 25, 2017 (GMT -0500)
Appleton Municipal

Weather History for KAQP - January, 2012

Change the Weather History Date:

Monday, January 23, 2012

  Actual Average Record
Temperature  
Mean Temperature 22 °F -  
Max Temperature 24 °F 17 °F 42 °F (2015)
Min Temperature 19 °F 2 °F -23 °F (2011)
Degree Days  
Heating Degree Days 44    
Moisture  
Dew Point 18 °F    
Average Humidity 91    
Maximum Humidity 100    
Minimum Humidity 86    
Precipitation  
Precipitation 0.00 in - - ()
Sea Level Pressure  
Sea Level Pressure 29.80 in    
Wind  
Wind Speed 15 mph (NW)    
Max Wind Speed 23 mph    
Max Gust Speed 28 mph    
Visibility 7 miles    
Events      
Averages and records for this station are not official NWS values.
T = Trace of Precipitation, MM = Missing Value Source: NWS Daily Summary

Daily Weather History Graph

Daily Weather History Graph

Search for Another Location

Airport or City:

Trip Planner

Search our weather history database for the weather conditions in past years. The results will help you decide how hot, cold, wet, or windy it might be!

Date:

Astronomy

Jan. 23, 2012 Rise Set
Actual Time 7:54 AM CST 5:17 PM CST
Civil Twilight 7:21 AM CST 5:50 PM CST
Nautical Twilight 6:45 AM CST 6:26 PM CST
Astronomical Twilight 6:10 AM CST 7:01 PM CST
Moon 7:47 AM CST (1/23) 6:11 PM CST (1/23)
Length of Visible Light 10h 28m
Length of Day
9h 23m
New Moon, 0% of the Moon is Illuminated
Jan 23
New Moon
Jan 30
First Quarter
Feb 7
Full
Feb 14
Last Quarter
Feb 21
New

Hourly Weather History & Observations

Time (CST) Temp. Windchill Dew Point Humidity Pressure Visibility Wind Dir Wind Speed Gust Speed Precip Events Conditions
2:21 AM 23.0 °F 13.1 °F 21.2 °F 93% 29.60 in 5.0 mi NW 9.2 mph - N/A   Overcast
2:41 AM 23.0 °F 12.4 °F 21.2 °F 93% 29.61 in 4.0 mi WNW 10.4 mph - N/A   Overcast
3:21 AM 23.0 °F 12.4 °F 21.2 °F 93% 29.62 in 4.0 mi WNW 10.4 mph - N/A   Overcast
4:15 AM 24.8 °F 11.9 °F 23.0 °F 93% 29.62 in 5.0 mi NW 16.1 mph - N/A   Mostly Cloudy
5:21 AM 24.8 °F 11.1 °F 24.8 °F 100% 29.63 in 3.0 mi WNW 18.4 mph 23.0 mph N/A   Overcast
5:41 AM 24.8 °F 12.9 °F 24.8 °F 100% 29.64 in 4.0 mi NW 13.8 mph - N/A   Overcast
6:01 AM 24.8 °F 11.5 °F 23.0 °F 93% 29.65 in 4.0 mi WNW 17.3 mph - N/A   Overcast
6:41 AM 24.8 °F 10.0 °F 23.0 °F 93% 29.66 in 5.0 mi NW 21.9 mph 25.3 mph N/A   Overcast
7:21 AM 23.0 °F 8.3 °F 21.2 °F 93% 29.68 in 10.0 mi NW 19.6 mph - N/A   Overcast
7:57 AM 21.2 °F 6.8 °F 21.2 °F 100% 29.69 in 5.0 mi NW 17.3 mph 23.0 mph N/A   Overcast
8:15 AM 21.2 °F 6.8 °F 21.2 °F 100% 29.70 in 4.0 mi NNW 17.3 mph 27.6 mph N/A   Overcast
8:35 AM 21.2 °F 6.4 °F 19.4 °F 93% 29.71 in 4.0 mi NW 18.4 mph 25.3 mph N/A   Overcast
9:01 AM 21.2 °F 6.4 °F 19.4 °F 93% 29.71 in 5.0 mi NW 18.4 mph - N/A   Overcast
9:55 AM 19.4 °F 4.5 °F 19.4 °F 100% 29.73 in 4.0 mi NW 17.3 mph 24.2 mph N/A   Overcast
10:16 AM 19.4 °F 2.8 °F 19.4 °F 100% 29.74 in 4.0 mi NW 21.9 mph 26.5 mph N/A   Overcast
10:34 AM 19.4 °F 4.1 °F 17.6 °F 93% 29.75 in 3.0 mi NW 18.4 mph 24.2 mph N/A   Overcast
10:55 AM 19.4 °F 4.1 °F 17.6 °F 93% 29.76 in 4.0 mi NW 18.4 mph 25.3 mph N/A   Overcast
11:16 AM 19.4 °F 2.5 °F 17.6 °F 93% 29.76 in 5.0 mi NW 23.0 mph - N/A   Overcast
11:35 AM 19.4 °F 4.5 °F 17.6 °F 93% 29.75 in 5.0 mi NW 17.3 mph - N/A   Overcast
12:15 PM 19.4 °F 3.2 °F 17.6 °F 93% 29.76 in 3.0 mi NW 20.7 mph 26.5 mph N/A   Overcast
12:35 PM 19.4 °F 3.6 °F 17.6 °F 93% 29.77 in 4.0 mi NW 19.6 mph - N/A   Overcast
12:55 PM 19.4 °F 4.1 °F 17.6 °F 93% 29.77 in 5.0 mi NW 18.4 mph - N/A   Overcast
1:15 PM 19.4 °F 3.2 °F 17.6 °F 93% 29.76 in 5.0 mi NW 20.7 mph - N/A   Overcast
1:35 PM 19.4 °F 3.6 °F 17.6 °F 93% 29.78 in 4.0 mi NW 19.6 mph 24.2 mph N/A   Overcast
1:55 PM 19.4 °F 3.6 °F 17.6 °F 93% 29.78 in 5.0 mi NW 19.6 mph - N/A   Overcast
2:35 PM 19.4 °F 3.2 °F 15.8 °F 86% 29.80 in 7.0 mi NW 20.7 mph 26.5 mph N/A   Overcast
2:54 PM 19.4 °F 3.6 °F 15.8 °F 86% 29.80 in 7.0 mi NW 19.6 mph - N/A   Overcast
3:15 PM 19.4 °F 6.0 °F 17.6 °F 93% 29.81 in 7.0 mi NW 13.8 mph - N/A   Overcast
3:35 PM 19.4 °F 5.5 °F 15.8 °F 86% 29.82 in 10.0 mi NW 15.0 mph - N/A   Overcast
3:55 PM 19.4 °F 6.6 °F 17.6 °F 93% 29.83 in 7.0 mi NW 12.7 mph - N/A   Overcast
4:15 PM 19.4 °F 5.5 °F 15.8 °F 86% 29.84 in 7.0 mi WNW 15.0 mph - N/A   Overcast
4:35 PM 19.4 °F 5.5 °F 15.8 °F 86% 29.84 in 10.0 mi NW 15.0 mph - N/A   Overcast
4:55 PM 19.4 °F 6.0 °F 15.8 °F 86% 29.85 in 10.0 mi NW 13.8 mph 18.4 mph N/A   Overcast
5:15 PM 19.4 °F 5.5 °F 15.8 °F 86% 29.87 in 10.0 mi WNW 15.0 mph - N/A   Overcast
5:35 PM 19.4 °F 6.0 °F 15.8 °F 86% 29.88 in 10.0 mi WNW 13.8 mph - N/A   Overcast
5:55 PM 19.4 °F 4.5 °F 15.8 °F 86% 29.89 in 10.0 mi NW 17.3 mph 21.9 mph N/A   Overcast
6:15 PM 19.4 °F 6.0 °F 15.8 °F 86% 29.90 in 10.0 mi WNW 13.8 mph - N/A   Overcast
6:35 PM 19.4 °F 6.6 °F 15.8 °F 86% 29.91 in 10.0 mi WNW 12.7 mph 19.6 mph N/A   Overcast
6:54 PM 19.4 °F 6.0 °F 17.6 °F 93% 29.91 in 10.0 mi NW 13.8 mph - N/A   Overcast
7:15 PM 19.4 °F 6.0 °F 15.8 °F 86% 29.92 in 10.0 mi NW 13.8 mph - N/A   Overcast
7:35 PM 19.4 °F 7.2 °F 15.8 °F 86% 29.93 in 10.0 mi WNW 11.5 mph - N/A   Overcast
8:35 PM 19.4 °F 6.6 °F 15.8 °F 86% 29.94 in 10.0 mi NW 12.7 mph - N/A   Overcast
8:55 PM 19.4 °F 7.2 °F 17.6 °F 93% 29.95 in 10.0 mi NW 11.5 mph - N/A   Overcast
9:14 PM 19.4 °F 9.5 °F 17.6 °F 93% 29.95 in 10.0 mi NW 8.1 mph - N/A   Overcast
9:35 PM 19.4 °F 7.9 °F 15.8 °F 86% 29.95 in 10.0 mi NW 10.4 mph - N/A   Overcast
9:55 PM 19.4 °F 9.5 °F 17.6 °F 93% 29.95 in 10.0 mi NW 8.1 mph - N/A   Overcast
10:15 PM 19.4 °F 10.4 °F 17.6 °F 93% 29.96 in 10.0 mi NW 6.9 mph - N/A   Overcast
10:35 PM 19.4 °F 9.5 °F 17.6 °F 93% 29.95 in 10.0 mi WNW 8.1 mph - N/A   Overcast
10:55 PM 19.4 °F 6.6 °F 15.8 °F 86% 29.96 in 10.0 mi WNW 12.7 mph - N/A   Overcast
11:35 PM 19.4 °F 6.0 °F 15.8 °F 86% 29.97 in 10.0 mi West 13.8 mph - N/A   Overcast
11:56 PM 19.4 °F 5.5 °F 15.8 °F 86% 29.98 in 10.0 mi West 15.0 mph - N/A   Overcast